• In Latvia
  • List of Countries
  • For 7 days
  • Water Temperature
  • Satellite Maps
  • Weather Map
  • Weather Widgets
  • user-avatar
    Login

    Hourly Weather Viedma

    Today, 21 June, Thursday

    Time Temperature Precipitation Wind Pressure Humidity
    00:00 +8°C° 0 mm 9 mps 753 mmHg 42%
    01:00 +8°C° 0 mm 9 mps 753 mmHg 44%
    02:00 +10°C° 0 mm 9 mps 753 mmHg 46%
    03:00 +8°C° 0 mm 10 mps 754 mmHg 47%
    04:00 +8°C° 0 mm 10 mps 754 mmHg 48%
    05:00 +8°C° 0 mm 10 mps 754 mmHg 49%
    06:00 +8°C° 0 mm 11 mps 755 mmHg 48%
    07:00 +7°C° 0 mm 11 mps 756 mmHg 47%
    08:00 +7°C° 0 mm 11 mps 756 mmHg 46%
    09:00 +8°C° 0 mm 12 mps 757 mmHg 42%
    10:00 +8°C° 0 mm 13 mps 758 mmHg 39%
    11:00 +9°C° 0 mm 13 mps 758 mmHg 35%
    12:00 +9°C° 0 mm 13 mps 758 mmHg 35%
    13:00 +9°C° 0 mm 12 mps 759 mmHg 35%
    14:00 +9°C° 0 mm 12 mps 759 mmHg 36%
    15:00 +9°C° 0 mm 10 mps 759 mmHg 38%
    16:00 +9°C° 0 mm 8 mps 758 mmHg 41%
    17:00 +9°C° 0 mm 6 mps 758 mmHg 44%
    18:00 +8°C° 0 mm 5 mps 758 mmHg 46%
    19:00 +8°C° 0 mm 4 mps 758 mmHg 49%
    20:00 +8°C° 0 mm 3 mps 758 mmHg 51%
    21:00 +7°C° 0 mm 4 mps 757 mmHg 50%
    22:00 +7°C° 0 mm 4 mps 757 mmHg 50%
    23:00 +7°C° 0 mm 5 mps 756 mmHg 49%

    Tomorrow, 22 June, Friday

    Time Temperature Precipitation Wind Pressure Humidity
    00:00 +7°C° 0 mm 5 mps 756 mmHg 50%
    01:00 +7°C° 0 mm 6 mps 755 mmHg 51%
    02:00 +6°C° 0 mm 7 mps 755 mmHg 52%
    03:00 +6°C° 0 mm 7 mps 754 mmHg 54%
    04:00 +6°C° 0 mm 8 mps 753 mmHg 56%
    05:00 +6°C° 0 mm 8 mps 753 mmHg 58%
    06:00 +7°C° 0 mm 8 mps 753 mmHg 58%
    07:00 +7°C° 0 mm 8 mps 752 mmHg 58%
    08:00 +7°C° 0 mm 8 mps 752 mmHg 58%
    09:00 +10°C° 0 mm 8 mps 752 mmHg 54%
    10:00 +11°C° 0 mm 9 mps 752 mmHg 51%
    11:00 +13°C° 0 mm 9 mps 752 mmHg 47%
    12:00 +13°C° 0 mm 9 mps 752 mmHg 46%
    13:00 +13°C° 0 mm 9 mps 751 mmHg 45%
    14:00 +15°C° 0 mm 8 mps 751 mmHg 44%
    15:00 +14°C° 0 mm 7 mps 750 mmHg 48%
    16:00 +13°C° 0 mm 6 mps 750 mmHg 51%
    17:00 +12°C° 0 mm 5 mps 750 mmHg 55%
    18:00 +12°C° 0 mm 5 mps 750 mmHg 57%
    19:00 +12°C° 0 mm 5 mps 749 mmHg 59%
    20:00 +11°C° 0 mm 6 mps 749 mmHg 62%
    21:00 +10°C° 0 mm 6 mps 749 mmHg 63%
    22:00 +10°C° 0 mm 6 mps 749 mmHg 64%
    23:00 +10°C° 0 mm 6 mps 749 mmHg 65%

    Day after tomorrow, 23 June, Saturday

    Time Temperature Precipitation Wind Pressure Humidity
    00:00 +10°C° 0 mm 7 mps 750 mmHg 63%
    01:00 +10°C° 0 mm 8 mps 750 mmHg 60%
    02:00 +8°C° 0 mm 9 mps 750 mmHg 57%
    03:00 +8°C° 0 mm 9 mps 751 mmHg 59%
    04:00 +7°C° 0 mm 10 mps 752 mmHg 60%
    05:00 +6°C° 0 mm 11 mps 753 mmHg 62%
    06:00 +4°C° 0 mm 11 mps 754 mmHg 59%
    07:00 +3°C° 0 mm 10 mps 756 mmHg 55%
    08:00 +3°C° 0 mm 10 mps 757 mmHg 52%
    09:00 +3°C° 0 mm 11 mps 758 mmHg 49%
    10:00 +3°C° 0 mm 12 mps 759 mmHg 47%
    11:00 +3°C° 0 mm 13 mps 759 mmHg 44%
    12:00 +3°C° 0 mm 13 mps 760 mmHg 43%
    13:00 +3°C° 0 mm 12 mps 760 mmHg 42%
    14:00 +3°C° 0 mm 12 mps 761 mmHg 42%
    15:00 +3°C° 0 mm 11 mps 761 mmHg 42%
    16:00 +2°C° 0 mm 10 mps 762 mmHg 42%
    17:00 +2°C° 0 mm 9 mps 762 mmHg 42%
    18:00 +2°C° 0 mm 8 mps 763 mmHg 43%
    19:00 +1°C° 0 mm 8 mps 763 mmHg 44%
    20:00 +1°C° 0 mm 8 mps 764 mmHg 45%
    21:00 +2°C° 0 mm 7 mps 764 mmHg 45%
    22:00 +2°C° 0 mm 6 mps 764 mmHg 46%
    23:00 +2°C° 0 mm 6 mps 765 mmHg 46%

    24 June, Sunday

    Time Temperature Precipitation Wind Pressure Humidity
    00:00 +1°C° 0 mm 5 mps 764 mmHg 46%
    01:00 +1°C° 0 mm 5 mps 764 mmHg 45%
    02:00 +1°C° 0 mm 4 mps 764 mmHg 45%
    03:00 +1°C° 0 mm 5 mps 764 mmHg 44%
    04:00 +1°C° 0 mm 6 mps 763 mmHg 43%
    05:00 -1°C° 0 mm 6 mps 763 mmHg 42%
    06:00 -1°C° 0 mm 6 mps 763 mmHg 41%
    07:00 -1°C° 0 mm 7 mps 762 mmHg 39%
    08:00 -1°C° 0 mm 7 mps 762 mmHg 38%
    09:00 +2°C° 0 mm 7 mps 761 mmHg 40%
    10:00 +2°C° 0 mm 8 mps 761 mmHg 43%
    11:00 +5°C° 0 mm 8 mps 760 mmHg 45%
    12:00 +7°C° 0 mm 9 mps 759 mmHg 42%
    13:00 +8°C° 0 mm 9 mps 758 mmHg 39%
    14:00 +9°C° 0 mm 10 mps 757 mmHg 36%
    15:00 +10°C° 0 mm 9 mps 756 mmHg 36%
    16:00 +8°C° 0 mm 9 mps 755 mmHg 37%
    17:00 +9°C° 0 mm 8 mps 755 mmHg 37%
    18:00 +7°C° 0 mm 8 mps 754 mmHg 36%
    19:00 +7°C° 0 mm 8 mps 754 mmHg 35%
    20:00 +7°C° 0 mm 8 mps 754 mmHg 33%
    21:00 +7°C° 0 mm 8 mps 754 mmHg 35%
    22:00 +9°C° 0 mm 7 mps 754 mmHg 36%
    23:00 +9°C° 0 mm 7 mps 754 mmHg 38%

    25 June, Monday

    Time Temperature Precipitation Wind Pressure Humidity
    00:00 +9°C° 0 mm 7 mps 754 mmHg 42%
    01:00 +9°C° 0 mm 6 mps 754 mmHg 47%
    02:00 +9°C° 0 mm 6 mps 754 mmHg 51%
    03:00 +8°C° 0 mm 6 mps 754 mmHg 55%
    04:00 +8°C° 0 mm 6 mps 754 mmHg 59%
    05:00 +8°C° 0 mm 6 mps 754 mmHg 63%
    06:00 +8°C° 0 mm 5 mps 754 mmHg 64%
    07:00 +8°C° 0 mm 5 mps 754 mmHg 65%
    08:00 +8°C° 0 mm 5 mps 755 mmHg 66%
    09:00 +9°C° 0 mm 5 mps 755 mmHg 61%
    10:00 +10°C° 0 mm 5 mps 755 mmHg 55%
    11:00 +13°C° 0 mm 6 mps 755 mmHg 49%
    12:00 +13°C° 0 mm 6 mps 754 mmHg 46%
    13:00 +14°C° 0 mm 7 mps 753 mmHg 43%
    14:00 +15°C° 0 mm 7 mps 752 mmHg 40%
    15:00 +15°C° 0 mm 7 mps 752 mmHg 41%
    16:00 +14°C° 0 mm 7 mps 751 mmHg 43%
    17:00 +14°C° 0 mm 7 mps 751 mmHg 45%
    18:00 +14°C° 0 mm 7 mps 751 mmHg 45%
    19:00 +13°C° 0 mm 8 mps 750 mmHg 46%
    20:00 +13°C° 0 mm 9 mps 750 mmHg 46%
    21:00 +13°C° 0 mm 9 mps 750 mmHg 47%
    22:00 +13°C° 0 mm 9 mps 750 mmHg 48%
    23:00 +13°C° 0 mm 9 mps 750 mmHg 49%

    26 June, Tuesday

    Time Temperature Precipitation Wind Pressure Humidity
    00:00 +12°C° 0 mm 9 mps 749 mmHg 49%
    01:00 +12°C° 0 mm 10 mps 749 mmHg 49%
    02:00 +12°C° 0 mm 10 mps 749 mmHg 49%
    03:00 +12°C° 0 mm 10 mps 749 mmHg 51%
    04:00 +12°C° 0 mm 10 mps 749 mmHg 53%
    05:00 +12°C° 0 mm 10 mps 748 mmHg 56%
    06:00 +12°C° 0 mm 10 mps 749 mmHg 55%
    07:00 +12°C° 0 mm 10 mps 749 mmHg 54%
    08:00 +12°C° 0 mm 10 mps 749 mmHg 53%
    09:00 +13°C° 0 mm 9 mps 750 mmHg 52%
    10:00 +15°C° 0 mm 9 mps 750 mmHg 50%
    11:00 +15°C° 0 mm 9 mps 750 mmHg 48%
    12:00 +16°C° 0 mm 8 mps 750 mmHg 48%
    13:00 +16°C° 0 mm 7 mps 750 mmHg 47%
    14:00 +16°C° 0 mm 6 mps 749 mmHg 46%
    15:00 +15°C° 0 mm 4 mps 749 mmHg 51%
    16:00 +14°C° 0 mm 3 mps 750 mmHg 57%
    17:00 +14°C° 0 mm 2 mps 750 mmHg 62%
    18:00 +13°C° 0 mm 2 mps 750 mmHg 63%
    19:00 +13°C° 0 mm 2 mps 750 mmHg 64%
    20:00 +13°C° 0 mm 2 mps 750 mmHg 65%
    21:00 +11°C° 0 mm 3 mps 750 mmHg 67%
    22:00 +11°C° 0 mm 3 mps 750 mmHg 69%
    23:00 +11°C° 0 mm 4 mps 750 mmHg 72%
    Show more